Weather in Forte dei Marmi

Italy     43°58′06″N   10°09′18″E
temp.,
°C
wind,
m/s
gust,
m/s
humid.,
%
clouds,
%
prec.,
mm/h
press.,
hPa
HPBL,
m
26 september, sun
sun2623:00+19ne22881 0.0 102124
02:00+18ne228918 0.0 102122
05:00+18ene229133 0.0 102047
08:00+18ene229044 0.1 102157
11:00+21ese238697 0.9 1020298
14:00+19e1295100 6.6 1019103
17:00+21se1289100 5.5 1019120
20:00+19ne11945 9.8 101822
27 september, mon
mon2723:00+18ene119422 2.4 101824
02:00+18ene119470 3.8 101819
05:00+18ene229446 1.0 101738
08:00+17ene22935 1.4 101743
11:00+20se1185100 0.4 1017203
14:00+22sw217292 0.8 1017813
17:00+21wsw2278100 0.1 1016506
20:00+18nw1190100 0.2 101765
28 september, tue
tue2823:00+17nw119096 0.0 101862
02:00+17ne118879 0.0 101830
05:00+16ne218750 0.0 101830
08:00+17ne228253 0.0 101839
11:00+22sw115961 0.0 1018595
14:00+23sw2262100 0.0 1017716
17:00+21wsw1172100 0.2 1017298
20:00+19n228098 0.4 101731
29 september, wed
wed2923:00+19ne1181100 0.0 101819
02:00+18nne1182100 0.1 101715
05:00+17nnw11883 0.1 101752
08:00+17ne11870 0.1 101734
11:00+21s217231 0.1 1017745
14:00+21wsw117517 2.2 1017661
17:00+20nne1280100 2.0 1017160
20:00+17ne22890 2.6 101840
30 september, thu
thu3023:00+15ne33880 0.0 102059
02:00+15ne33881 0.0 102062
05:00+15ne33861 0.0 102067
08:00+14ne34851 0.0 102293
11:00+20n125989 0.0 1022811
14:00+22sse02495 0.0 10221420
17:00+20ese125525 0.0 1021893
20:00+15ne22735 0.0 102369